• în România
  • Lista ţărilor
  • Pe 7 zile
  • Temperatura apei
  • Hartă satelitară
  • Meteo pe hartă
  • Widget-uri
  • user-avatar
    Intrare

    Meteo pe oră la Bucureşti

    Astăzi, 22 Octombrie, Duminică

    Timp Temperatura Precipitaţii Vânt Presiune Umiditate
    00:00 +17°C° 0 mm 2 m/s 753 mmHg 50%
    01:00 +17°C° 0 mm 2 m/s 753 mmHg 53%
    02:00 +16°C° 0 mm 3 m/s 753 mmHg 54%
    03:00 +16°C° 0 mm 2 m/s 753 mmHg 56%
    04:00 +15°C° 0 mm 2 m/s 753 mmHg 58%
    05:00 +15°C° 0 mm 1 m/s 754 mmHg 59%
    06:00 +15°C° 0 mm 1 m/s 754 mmHg 59%
    07:00 +15°C° 0 mm 1 m/s 754 mmHg 60%
    08:00 +16°C° 0 mm 1 m/s 754 mmHg 60%
    09:00 +18°C° 0 mm 1 m/s 754 mmHg 55%
    10:00 +19°C° 0 mm 1 m/s 754 mmHg 50%
    11:00 +20°C° 0 mm 2 m/s 755 mmHg 46%
    12:00 +20°C° 0 mm 2 m/s 754 mmHg 44%
    13:00 +21°C° 0 mm 2 m/s 754 mmHg 42%
    14:00 +21°C° 0 mm 2 m/s 754 mmHg 40%
    15:00 +21°C° 0 mm 2 m/s 754 mmHg 42%
    16:00 +20°C° 0 mm 2 m/s 754 mmHg 44%
    17:00 +19°C° 0 mm 2 m/s 754 mmHg 46%
    18:00 +19°C° 0 mm 3 m/s 754 mmHg 48%
    19:00 +18°C° 0 mm 4 m/s 754 mmHg 50%
    20:00 +17°C° 0 mm 4 m/s 754 mmHg 52%
    21:00 +17°C° 0 mm 4 m/s 754 mmHg 55%
    22:00 +15°C° 0 mm 5 m/s 754 mmHg 58%
    23:00 +14°C° 0 mm 5 m/s 754 mmHg 61%

    Mâine, 23 Octombrie, Luni

    Timp Temperatura Precipitaţii Vânt Presiune Umiditate
    00:00 +14°C° 0 mm 5 m/s 754 mmHg 64%
    01:00 +14°C° 0 mm 5 m/s 754 mmHg 66%
    02:00 +14°C° 0 mm 5 m/s 753 mmHg 68%
    03:00 +13°C° 0 mm 5 m/s 753 mmHg 71%
    04:00 +13°C° 0 mm 5 m/s 752 mmHg 73%
    05:00 +13°C° 0 mm 5 m/s 752 mmHg 76%
    06:00 +13°C° 0 mm 5 m/s 751 mmHg 77%
    07:00 +13°C° 0 mm 5 m/s 751 mmHg 78%
    08:00 +13°C° 0 mm 6 m/s 751 mmHg 79%
    09:00 +14°C° 0,1 mm 6 m/s 750 mmHg 75%
    10:00 +15°C° 0,1 mm 6 m/s 750 mmHg 71%
    11:00 +16°C° 0,1 mm 6 m/s 750 mmHg 67%
    12:00 +16°C° 0,3 mm 5 m/s 749 mmHg 67%
    13:00 +17°C° 0,3 mm 5 m/s 749 mmHg 67%
    14:00 +18°C° 0,3 mm 4 m/s 748 mmHg 67%
    15:00 +17°C° 0,3 mm 4 m/s 748 mmHg 69%
    16:00 +17°C° 0,3 mm 4 m/s 748 mmHg 71%
    17:00 +17°C° 0,3 mm 4 m/s 747 mmHg 73%
    18:00 +17°C° 0,9 mm 4 m/s 747 mmHg 76%
    19:00 +15°C° 0,9 mm 4 m/s 747 mmHg 79%
    20:00 +15°C° 0,9 mm 5 m/s 747 mmHg 82%
    21:00 +15°C° 1,7 mm 5 m/s 746 mmHg 83%
    22:00 +15°C° 1,7 mm 6 m/s 746 mmHg 85%
    23:00 +15°C° 1,7 mm 6 m/s 746 mmHg 86%

    Poimâine, 24 Octombrie, Marţi

    Timp Temperatura Precipitaţii Vânt Presiune Umiditate
    00:00 +15°C° 0,5 mm 7 m/s 746 mmHg 86%
    01:00 +15°C° 0,5 mm 7 m/s 746 mmHg 85%
    02:00 +15°C° 0,5 mm 7 m/s 746 mmHg 85%
    03:00 +15°C° 0,5 mm 7 m/s 746 mmHg 86%
    04:00 +15°C° 0,5 mm 7 m/s 746 mmHg 86%
    05:00 +15°C° 0,5 mm 7 m/s 746 mmHg 87%
    06:00 +15°C° 1 mm 7 m/s 746 mmHg 86%
    07:00 +15°C° 1 mm 8 m/s 746 mmHg 86%
    08:00 +15°C° 1 mm 8 m/s 747 mmHg 85%
    09:00 +15°C° 2,7 mm 8 m/s 748 mmHg 85%
    10:00 +15°C° 2,7 mm 8 m/s 748 mmHg 84%
    11:00 +15°C° 2,7 mm 9 m/s 749 mmHg 83%
    12:00 +15°C° 0,8 mm 9 m/s 749 mmHg 81%
    13:00 +16°C° 0,8 mm 9 m/s 750 mmHg 79%
    14:00 +16°C° 0,8 mm 9 m/s 750 mmHg 77%
    15:00 +15°C° 0,4 mm 9 m/s 751 mmHg 76%
    16:00 +13°C° 0,4 mm 10 m/s 751 mmHg 76%
    17:00 +12°C° 0,4 mm 10 m/s 752 mmHg 75%
    18:00 +12°C° 0,1 mm 10 m/s 752 mmHg 74%
    19:00 +11°C° 0,1 mm 10 m/s 753 mmHg 73%
    20:00 +11°C° 0,1 mm 10 m/s 754 mmHg 71%
    21:00 +11°C° 0 mm 10 m/s 754 mmHg 70%
    22:00 +10°C° 0 mm 9 m/s 755 mmHg 69%
    23:00 +10°C° 0 mm 9 m/s 756 mmHg 68%

    25 Octombrie, Miercuri

    Timp Temperatura Precipitaţii Vânt Presiune Umiditate
    00:00 +10°C° 0 mm 8 m/s 756 mmHg 68%
    01:00 +9°C° 0 mm 8 m/s 756 mmHg 69%
    02:00 +9°C° 0 mm 7 m/s 757 mmHg 69%
    03:00 +9°C° 0 mm 7 m/s 757 mmHg 69%
    04:00 +9°C° 0 mm 7 m/s 757 mmHg 69%
    05:00 +9°C° 0 mm 7 m/s 758 mmHg 68%
    06:00 +9°C° 0 mm 7 m/s 758 mmHg 68%
    07:00 +9°C° 0 mm 6 m/s 758 mmHg 67%
    08:00 +9°C° 0 mm 6 m/s 759 mmHg 66%
    09:00 +10°C° 0 mm 6 m/s 759 mmHg 62%
    10:00 +11°C° 0 mm 6 m/s 760 mmHg 59%
    11:00 +11°C° 0 mm 6 m/s 760 mmHg 56%
    12:00 +13°C° 0 mm 5 m/s 760 mmHg 54%
    13:00 +14°C° 0 mm 5 m/s 760 mmHg 52%
    14:00 +15°C° 0 mm 4 m/s 760 mmHg 51%
    15:00 +14°C° 0 mm 3 m/s 760 mmHg 54%
    16:00 +14°C° 0 mm 3 m/s 760 mmHg 57%
    17:00 +14°C° 0 mm 2 m/s 760 mmHg 60%
    18:00 +14°C° 0 mm 2 m/s 761 mmHg 61%
    19:00 +13°C° 0 mm 2 m/s 761 mmHg 62%
    20:00 +13°C° 0 mm 2 m/s 761 mmHg 63%
    21:00 +13°C° 0 mm 2 m/s 762 mmHg 64%
    22:00 +12°C° 0 mm 1 m/s 762 mmHg 64%
    23:00 +12°C° 0 mm 1 m/s 762 mmHg 65%

    26 Octombrie, Joi

    Timp Temperatura Precipitaţii Vânt Presiune Umiditate
    00:00 +12°C° 0 mm 1 m/s 762 mmHg 67%
    01:00 +11°C° 0 mm 1 m/s 762 mmHg 69%
    02:00 +11°C° 0 mm 1 m/s 762 mmHg 71%
    03:00 +10°C° 0 mm 2 m/s 761 mmHg 73%
    04:00 +9°C° 0 mm 2 m/s 761 mmHg 76%
    05:00 +9°C° 0 mm 2 m/s 761 mmHg 78%
    06:00 +9°C° 0 mm 3 m/s 761 mmHg 78%
    07:00 +10°C° 0 mm 3 m/s 761 mmHg 78%
    08:00 +10°C° 0 mm 4 m/s 761 mmHg 77%
    09:00 +12°C° 0 mm 4 m/s 761 mmHg 72%
    10:00 +13°C° 0 mm 4 m/s 760 mmHg 66%
    11:00 +15°C° 0 mm 5 m/s 760 mmHg 61%
    12:00 +17°C° 0 mm 4 m/s 760 mmHg 58%
    13:00 +18°C° 0 mm 4 m/s 759 mmHg 55%
    14:00 +18°C° 0 mm 4 m/s 759 mmHg 53%
    15:00 +18°C° 0 mm 4 m/s 759 mmHg 55%
    16:00 +17°C° 0 mm 3 m/s 759 mmHg 57%
    17:00 +17°C° 0 mm 3 m/s 758 mmHg 58%
    18:00 +16°C° 0 mm 3 m/s 759 mmHg 60%
    19:00 +15°C° 0 mm 2 m/s 759 mmHg 62%
    20:00 +15°C° 0 mm 2 m/s 759 mmHg 64%
    21:00 +14°C° 0 mm 2 m/s 759 mmHg 67%
    22:00 +14°C° 0 mm 2 m/s 759 mmHg 69%
    23:00 +14°C° 0 mm 2 m/s 759 mmHg 71%

    27 Octombrie, Vineri

    Timp Temperatura Precipitaţii Vânt Presiune Umiditate
    00:00 +13°C° 0 mm 2 m/s 759 mmHg 74%
    01:00 +13°C° 0 mm 2 m/s 759 mmHg 76%
    02:00 +13°C° 0 mm 2 m/s 759 mmHg 78%
    03:00 +13°C° 0 mm 2 m/s 759 mmHg 79%
    04:00 +12°C° 0 mm 2 m/s 758 mmHg 81%
    05:00 +12°C° 0 mm 2 m/s 758 mmHg 82%
    06:00 +12°C° 0 mm 2 m/s 758 mmHg 81%
    07:00 +12°C° 0 mm 2 m/s 758 mmHg 80%
    08:00 +13°C° 0 mm 2 m/s 758 mmHg 79%
    09:00 +14°C° 0 mm 2 m/s 757 mmHg 73%
    10:00 +16°C° 0 mm 3 m/s 757 mmHg 66%
    11:00 +17°C° 0 mm 3 m/s 757 mmHg 59%
    12:00 +18°C° 0 mm 3 m/s 756 mmHg 56%
    13:00 +19°C° 0 mm 3 m/s 755 mmHg 53%
    14:00 +20°C° 0 mm 3 m/s 754 mmHg 50%
    15:00 +19°C° 0 mm 3 m/s 754 mmHg 53%
    16:00 +19°C° 0 mm 3 m/s 753 mmHg 56%
    17:00 +18°C° 0 mm 2 m/s 753 mmHg 59%
    18:00 +17°C° 0 mm 2 m/s 753 mmHg 61%
    19:00 +17°C° 0 mm 3 m/s 752 mmHg 64%
    20:00 +16°C° 0 mm 3 m/s 752 mmHg 67%
    21:00 +16°C° 0 mm 3 m/s 751 mmHg 68%
    22:00 +14°C° 0 mm 3 m/s 751 mmHg 69%
    23:00 +14°C° 0 mm 3 m/s 750 mmHg 70%
    Arată mai mult